Weather reports worldwide

Advertisment
Roma/Ciampino, Italy (16239): temperature & dewpoint: 17.04.2018 01:00:00 - 23.04.2018 01:00:00 (CEST)Roma/Ciampino, Italy (16239): wind speed: 17.04.2018 01:00:00 - 23.04.2018 01:00:00 (CEST)Roma/Ciampino, Italy (16239): wind direction: 17.04.2018 01:00:00 - 23.04.2018 01:00:00 (CEST)Roma/Ciampino, Italy (16239): reduced air pressure: 17.04.2018 01:00:00 - 23.04.2018 01:00:00 (CEST)Roma/Ciampino, Italy (16239): visibility: 17.04.2018 01:00:00 - 23.04.2018 01:00:00 (CEST)Roma/Ciampino, Italy (16239): precipitation: 17.04.2018 01:00:00 - 23.04.2018 01:00:00 (CEST)
Date & Time tt [°C] td [°C] ff [km/h] ff [kn] dd ppp [hPa] vv [km] rr [mm]
23.04.2018 01:00:00 14,0 10,0 8 4 ESE - 10 -
23.04.2018 00:00:00 14,0 11,0 5 3 ESE - 10 -
22.04.2018 23:00:00 15,2 11,2 8 4 ESE 1019,4 10 0,0
22.04.2018 22:00:00 16,0 11,0 5 3 S - 10 -
22.04.2018 21:00:00 17,0 11,0 8 4 SSW - 10 -
22.04.2018 20:00:00 18,7 11,0 5 3 SSW 1018,1 25 -
22.04.2018 19:00:00 21,0 12,0 9 5 SW - 10 -
22.04.2018 18:00:00 22,0 11,0 9 5 SW - 10 -
22.04.2018 17:00:00 22,3 10,3 11 6 WSW 1017,8 30 0,0
22.04.2018 16:00:00 23,0 13,0 13 7 WSW - 10 -
22.04.2018 15:00:00 23,0 13,0 11 6 WSW - 10 -
22.04.2018 14:00:00 22,9 14,8 8 4 - 1018,6 10 -
22.04.2018 13:00:00 22,0 14,0 8 4 - - 10 -
22.04.2018 12:00:00 21,0 12,0 11 6 - - 10 -
22.04.2018 11:00:00 20,6 13,7 8 4 W 1019,5 10 0,0
22.04.2018 10:00:00 18,0 13,0 4 2 - - 8 -
22.04.2018 09:00:00 16,0 13,0 4 2 - - 6 -
22.04.2018 08:00:00 13,3 12,8 4 2 ESE 1019,0 6 -
22.04.2018 07:00:00 13,0 13,0 5 3 SE - 0,1 -
22.04.2018 06:00:00 13,0 13,0 4 2 - - 7 -
22.04.2018 05:00:00 13,8 13,6 4 2 N 1018,6 - 0,0
22.04.2018 04:00:00 14,0 11,0 8 4 SW - 10 -
22.04.2018 03:00:00 15,0 11,0 5 3 ESE - 10 -
22.04.2018 02:00:00 14,8 11,9 5 3 E 1019,0 10 -
22.04.2018 01:00:00 16,0 14,0 4 2 ESE - 10 -
22.04.2018 00:00:00 17,0 14,0 4 2 - - 10 -
21.04.2018 23:00:00 17,2 14,1 2 1 - 1019,4 10 0,0
21.04.2018 22:00:00 17,0 14,0 4 2 - - 10 -
21.04.2018 21:00:00 18,0 14,0 11 6 SSW - 10 -
21.04.2018 20:00:00 19,8 12,9 8 4 SSW 1018,4 55 -
21.04.2018 19:00:00 22,0 14,0 11 6 SSW - 10 -
21.04.2018 18:00:00 23,0 10,0 11 6 SSW - 10 -
21.04.2018 17:00:00 23,4 9,3 11 6 SSW 1018,4 60 0,0
21.04.2018 16:00:00 24,0 10,0 13 7 SSW - 10 -
21.04.2018 15:00:00 24,0 10,0 13 7 SSW - 10 -
21.04.2018 14:00:00 24,7 12,9 11 6 SW 1019,0 10 -
21.04.2018 13:00:00 - - - - - - - -
21.04.2018 12:00:00 23,0 12,0 13 7 SSW - 10 -
21.04.2018 11:00:00 22,8 11,0 11 6 S 1019,4 10 0,0
21.04.2018 10:00:00 20,0 11,0 4 2 - - 10 -
21.04.2018 09:00:00 18,0 11,0 4 2 - - 10 -
21.04.2018 08:00:00 16,4 10,3 2 1 NNE 1019,0 10 -
21.04.2018 07:00:00 12,0 9,0 2 1 - - 10 -
21.04.2018 06:00:00 13,0 9,0 4 2 SSE - 10 -
21.04.2018 05:00:00 13,9 8,8 5 3 ESE 1018,3 25 0,0
21.04.2018 04:00:00 14,0 10,0 5 3 NNE - 10 -
21.04.2018 03:00:00 16,0 9,0 4 2 NE - 10 -
21.04.2018 02:00:00 16,1 9,2 5 3 NNE 1019,0 10 -
21.04.2018 01:00:00 16,0 10,0 8 4 E - 10 -
21.04.2018 00:00:00 16,0 11,0 8 4 E - 10 -
20.04.2018 23:00:00 16,9 10,8 8 4 ESE 1019,4 10 0,0
20.04.2018 22:00:00 17,0 12,0 9 5 ESE - 10 -
20.04.2018 21:00:00 18,0 12,0 8 4 SE - 10 -
20.04.2018 20:00:00 19,5 12,5 8 4 W 1019,0 10 -
20.04.2018 19:00:00 23,0 14,0 8 4 SW - 10 -
20.04.2018 18:00:00 24,0 13,0 11 6 SW - 10 -
20.04.2018 17:00:00 24,5 12,1 11 6 WSW 1019,0 25 0,0
20.04.2018 16:00:00 25,0 12,0 13 7 SW - 10 -
20.04.2018 15:00:00 26,0 12,0 13 7 WSW - 10 -
20.04.2018 14:00:00 25,1 12,3 9 5 W 1020,5 10 -
20.04.2018 13:00:00 24,0 13,0 9 5 W - 10 -
20.04.2018 12:00:00 23,0 11,0 5 3 - - 10 -
20.04.2018 11:00:00 21,7 12,3 4 2 - 1021,9 10 0,0
20.04.2018 10:00:00 19,0 13,0 4 2 - - 10 -
20.04.2018 09:00:00 17,0 12,0 9 5 NNE - 10 -
20.04.2018 08:00:00 15,3 11,9 2 1 N 1021,8 50 -
20.04.2018 07:00:00 13,0 11,0 4 2 NNW - 10 -
20.04.2018 06:00:00 14,0 11,0 5 3 N - 10 -
20.04.2018 05:00:00 15,2 11,1 4 2 N 1021,4 25 0,0
20.04.2018 04:00:00 15,0 11,0 4 2 - - 10 -
20.04.2018 03:00:00 16,0 11,0 8 4 NNE - 10 -
20.04.2018 02:00:00 15,6 11,3 2 1 N 1022,0 27 -
20.04.2018 01:00:00 16,0 12,0 4 2 - - 10 -
20.04.2018 00:00:00 16,0 12,0 5 3 ESE - 10 -
19.04.2018 23:00:00 17,8 11,5 2 1 - 1022,8 25 0,0
19.04.2018 22:00:00 19,0 11,0 5 3 ESE - 10 -
19.04.2018 21:00:00 19,0 11,0 4 2 - - 10 -
19.04.2018 20:00:00 19,4 11,2 8 4 S 1023,1 30 -
19.04.2018 19:00:00 22,0 11,0 8 4 WSW - 10 -
19.04.2018 18:00:00 23,0 10,0 16 9 W - 10 -
19.04.2018 17:00:00 22,6 11,5 16 9 W 1023,0 10 0,0
19.04.2018 16:00:00 24,0 13,0 21 11 W - 10 -
19.04.2018 15:00:00 24,0 10,0 9 5 W - 10 -
19.04.2018 14:00:00 24,1 10,3 8 4 WNW 1024,2 10 -
19.04.2018 13:00:00 23,0 11,0 8 4 - - 10 -
19.04.2018 12:00:00 22,0 11,0 8 4 NNW - 10 -
19.04.2018 11:00:00 21,1 12,2 8 4 NNW 1024,9 10 0,0
19.04.2018 10:00:00 20,0 13,0 8 4 N - 10 -
19.04.2018 09:00:00 17,0 12,0 9 5 N - 10 -
19.04.2018 08:00:00 15,1 10,6 8 4 N 1024,7 25 -
19.04.2018 07:00:00 14,0 10,0 8 4 NE - 10 -
19.04.2018 06:00:00 14,0 10,0 5 3 ENE - 10 -
19.04.2018 05:00:00 14,0 9,7 4 2 N 1024,3 10 0,0
19.04.2018 04:00:00 15,0 9,0 8 4 ENE - 10 -
19.04.2018 03:00:00 14,0 10,0 5 3 NE - 10 -
19.04.2018 02:00:00 14,4 10,6 8 4 NNE 1024,8 10 -
19.04.2018 01:00:00 15,0 10,0 8 4 NNW - 10 -
19.04.2018 00:00:00 16,0 12,0 5 3 NW - 10 -
18.04.2018 23:00:00 15,4 10,9 5 3 E 1024,7 10 0,0
18.04.2018 22:00:00 17,0 12,0 8 4 ENE - 10 -
18.04.2018 21:00:00 18,0 12,0 2 1 - - 10 -
18.04.2018 20:00:00 17,9 12,5 5 3 SSE 1023,5 10 -
18.04.2018 19:00:00 19,0 13,0 11 6 S - 10 -
18.04.2018 18:00:00 20,0 13,0 11 6 SSW - 10 -
18.04.2018 17:00:00 20,8 13,6 8 4 NNE 1022,9 10 0,0
18.04.2018 16:00:00 23,0 11,0 9 5 NNE - 10 -
18.04.2018 15:00:00 22,0 11,0 13 7 N - 10 -
18.04.2018 14:00:00 21,7 12,4 16 9 N 1023,4 10 -
18.04.2018 13:00:00 19,0 13,0 11 6 NE - 10 -
18.04.2018 12:00:00 18,0 13,0 9 5 N - 10 -
18.04.2018 11:00:00 17,2 11,7 11 6 NNE 1023,9 10 0,0
18.04.2018 10:00:00 16,0 12,0 9 5 N - 10 -
18.04.2018 09:00:00 14,0 11,0 9 5 NNE - 10 -
18.04.2018 08:00:00 13,8 11,2 11 6 NNE 1022,8 10 -
18.04.2018 07:00:00 13,0 12,0 13 7 NNE - 10 -
18.04.2018 06:00:00 14,0 12,0 8 4 ENE - 10 -
18.04.2018 05:00:00 12,4 11,7 5 3 - 1022,1 10 0,0
18.04.2018 04:00:00 - - - - - - - -
18.04.2018 03:00:00 13,0 11,0 4 2 ENE - 10 -
18.04.2018 02:00:00 12,6 11,6 4 2 - 1022,0 10 -
18.04.2018 01:00:00 14,0 13,0 5 3 ENE - 10 -
18.04.2018 00:00:00 14,0 14,0 4 2 - - 10 -
17.04.2018 23:00:00 14,3 13,4 4 2 - 1021,6 10 0,0
17.04.2018 22:00:00 - - - - - - - -
17.04.2018 21:00:00 16,0 14,0 4 2 - - 10 -
17.04.2018 20:00:00 15,8 13,9 2 1 - 1019,7 10 -
17.04.2018 19:00:00 16,0 14,0 9 5 SSW - 8 -
17.04.2018 18:00:00 18,0 13,0 5 3 - - 10 -
17.04.2018 17:00:00 18,1 13,7 9 5 SW 1019,0 10 0,0
17.04.2018 16:00:00 20,0 13,0 11 6 SW - 10 -
17.04.2018 15:00:00 21,0 14,0 13 7 SW - 10 -
17.04.2018 14:00:00 21,0 13,7 13 7 SW 1019,0 10 -
17.04.2018 13:00:00 20,0 12,0 4 2 - - 10 -
17.04.2018 12:00:00 19,0 11,0 8 4 - - 10 -
17.04.2018 11:00:00 17,4 11,0 5 3 WNW 1019,5 10 0,0
17.04.2018 10:00:00 16,0 11,0 4 2 - - 10 -
17.04.2018 09:00:00 15,0 11,0 2 1 - - 10 -
17.04.2018 08:00:00 13,5 10,3 2 1 NNE 1018,1 10 -
17.04.2018 07:00:00 13,0 10,0 5 3 NNE - 10 -
17.04.2018 06:00:00 - - - - - - - -
17.04.2018 05:00:00 12,4 8,3 8 4 E 1016,9 10 0,0
17.04.2018 04:00:00 12,0 9,0 8 4 E - 10 -
17.04.2018 03:00:00 12,0 9,0 5 3 SE - 10 -
17.04.2018 02:00:00 12,6 10,0 8 4 SSE 1016,3 10 -
17.04.2018 01:00:00 13,0 10,0 8 4 SSE - 10 -

tt = temperature
td = dewpoint
ff = wind speed
dd = wind direction
ppp = reduced air pressure
vv = visibility
rr = precipitation

Next stations